User: anonymous   Login
Location: �couen
(49.0206°N, 2.3831°E)
Time: 02:28:54
(UTC+00:00)
Language:

Cosmos 2278 - Orbit

View from above orbital plane
View from above orbital plane
View from above satellite
View from above satellite

Ground track
Ground track

The orbit data is extracted from the following two-line orbital elements,

1 23087U 94023A   22019.54138806 -.00000128  00000-0 -42746-4 0  9997
2 23087  71.0530  93.0499 0009195 189.9486 170.1456 14.13839557431571
Epoch (UTC): 19 January 2022 12:59:35
Eccentricity: 0.0009195
inclination: 71.0530°
perigee height: 839 km
apogee height: 853 km
right ascension of ascending node: 93.0499°
argument of perigee: 189.9486°
revolutions per day: 14.13839557
mean anomaly at epoch: 170.1456°
orbit number at epoch: 43157

The dashed part of the orbit path shows where the satellite is in the earth's shadow,  

DLR